When you browse on this site, cookies collect data to enhance your experience and personalize the content and advertising you see.
Visit our Privacy Policy to learn more. By continuing to use the site, you agree to this use of cookies and data.
  • în România
  • Lista ţărilor
  • Pe 7 zile
  • Temperatura apei
  • Hartă satelitară
  • Meteo pe hartă
  • Widget-uri
  • user-avatar
    Intrare

    Meteo pe oră la Kraskow

    Astăzi, 22 Mai, Miercuri

    Timp Temperatura Precipitaţii Vânt Presiune Umiditate
    00:00 +14°C° 0.1 mm 4 m/s 737 mmHg 89%
    01:00 +14°C° 0 mm 4 m/s 737 mmHg 92%
    02:00 +14°C° 0.4 mm 5 m/s 737 mmHg 93%
    03:00 +14°C° 0.4 mm 5 m/s 737 mmHg 95%
    04:00 +14°C° 0.4 mm 6 m/s 737 mmHg 96%
    05:00 +14°C° 0.5 mm 6 m/s 738 mmHg 96%
    06:00 +14°C° 0.5 mm 6 m/s 738 mmHg 96%
    07:00 +14°C° 0 mm 5 m/s 738 mmHg 95%
    08:00 +14°C° 1.2 mm 6 m/s 738 mmHg 95%
    09:00 +14°C° 1.2 mm 6 m/s 739 mmHg 95%
    10:00 +14°C° 1.2 mm 7 m/s 739 mmHg 95%
    11:00 +12°C° 1 mm 7 m/s 739 mmHg 95%
    12:00 +12°C° 1 mm 7 m/s 740 mmHg 95%
    13:00 +12°C° 1 mm 7 m/s 740 mmHg 95%
    14:00 +12°C° 0.3 mm 7 m/s 740 mmHg 94%
    15:00 +11°C° 0.3 mm 8 m/s 740 mmHg 94%
    16:00 +11°C° 0.3 mm 8 m/s 741 mmHg 94%
    17:00 +11°C° 0.1 mm 8 m/s 741 mmHg 94%
    18:00 +11°C° 0.1 mm 8 m/s 741 mmHg 93%
    19:00 +11°C° 0.1 mm 8 m/s 742 mmHg 93%
    20:00 +11°C° 0.1 mm 8 m/s 742 mmHg 93%
    21:00 +11°C° 0.1 mm 8 m/s 742 mmHg 94%
    22:00 +10°C° 0.1 mm 7 m/s 743 mmHg 94%
    23:00 +10°C° 0.1 mm 7 m/s 743 mmHg 94%

    Mâine, 23 Mai, Joi

    Timp Temperatura Precipitaţii Vânt Presiune Umiditate
    00:00 +10°C° 0.1 mm 7 m/s 743 mmHg 94%
    01:00 +10°C° 0.1 mm 7 m/s 743 mmHg 94%
    02:00 +10°C° 0 mm 7 m/s 744 mmHg 94%
    03:00 +9°C° 0 mm 7 m/s 744 mmHg 93%
    04:00 +9°C° 0 mm 7 m/s 744 mmHg 93%
    05:00 +9°C° 0.1 mm 7 m/s 744 mmHg 93%
    06:00 +9°C° 0.1 mm 7 m/s 745 mmHg 93%
    07:00 +8°C° 0.1 mm 7 m/s 745 mmHg 93%
    08:00 +8°C° 0.1 mm 7 m/s 745 mmHg 92%
    09:00 +8°C° 0.1 mm 7 m/s 746 mmHg 92%
    10:00 +8°C° 0.1 mm 6 m/s 746 mmHg 91%
    11:00 +10°C° 0 mm 6 m/s 746 mmHg 83%
    12:00 +11°C° 0 mm 6 m/s 746 mmHg 76%
    13:00 +14°C° 0 mm 6 m/s 746 mmHg 69%
    14:00 +14°C° 0 mm 5 m/s 746 mmHg 67%
    15:00 +15°C° 0 mm 5 m/s 746 mmHg 66%
    16:00 +17°C° 0 mm 4 m/s 745 mmHg 65%
    17:00 +16°C° 0 mm 3 m/s 745 mmHg 68%
    18:00 +16°C° 0 mm 3 m/s 745 mmHg 72%
    19:00 +15°C° 0 mm 2 m/s 745 mmHg 75%
    20:00 +14°C° 0 mm 2 m/s 746 mmHg 76%
    21:00 +12°C° 0 mm 2 m/s 746 mmHg 78%
    22:00 +10°C° 0 mm 2 m/s 746 mmHg 79%
    23:00 +9°C° 0 mm 2 m/s 746 mmHg 81%

    Poimâine, 24 Mai, Vineri

    Timp Temperatura Precipitaţii Vânt Presiune Umiditate
    00:00 +8°C° 0 mm 2 m/s 746 mmHg 83%
    01:00 +8°C° 0 mm 2 m/s 746 mmHg 84%
    02:00 +7°C° 0 mm 2 m/s 746 mmHg 85%
    03:00 +7°C° 0 mm 2 m/s 746 mmHg 86%
    04:00 +6°C° 0 mm 2 m/s 746 mmHg 88%
    05:00 +8°C° 0 mm 2 m/s 746 mmHg 81%
    06:00 +10°C° 0 mm 2 m/s 746 mmHg 75%
    07:00 +13°C° 0 mm 2 m/s 746 mmHg 69%
    08:00 +15°C° 0 mm 2 m/s 746 mmHg 64%
    09:00 +16°C° 0 mm 2 m/s 746 mmHg 60%
    10:00 +17°C° 0 mm 2 m/s 745 mmHg 56%
    11:00 +18°C° 0 mm 2 m/s 745 mmHg 55%
    12:00 +19°C° 0 mm 2 m/s 745 mmHg 55%
    13:00 +20°C° 0 mm 2 m/s 744 mmHg 54%
    14:00 +20°C° 0 mm 2 m/s 744 mmHg 54%
    15:00 +20°C° 0 mm 2 m/s 744 mmHg 55%
    16:00 +21°C° 0 mm 1 m/s 743 mmHg 55%
    17:00 +20°C° 0 mm 1 m/s 743 mmHg 61%
    18:00 +19°C° 0 mm 1 m/s 743 mmHg 67%
    19:00 +15°C° 0 mm 0 m/s 743 mmHg 72%
    20:00 +15°C° 0 mm 1 m/s 743 mmHg 75%
    21:00 +14°C° 0 mm 2 m/s 743 mmHg 78%
    22:00 +13°C° 0 mm 2 m/s 743 mmHg 81%
    23:00 +13°C° 0 mm 2 m/s 743 mmHg 80%

    25 Mai, Sâmbătă

    Timp Temperatura Precipitaţii Vânt Presiune Umiditate
    00:00 +13°C° 0 mm 2 m/s 743 mmHg 80%
    01:00 +12°C° 0 mm 2 m/s 743 mmHg 79%
    02:00 +12°C° 0 mm 2 m/s 743 mmHg 81%
    03:00 +12°C° 0 mm 2 m/s 743 mmHg 83%
    04:00 +12°C° 0 mm 2 m/s 743 mmHg 85%
    05:00 +13°C° 0 mm 2 m/s 743 mmHg 82%
    06:00 +15°C° 0 mm 2 m/s 743 mmHg 78%
    07:00 +16°C° 0 mm 2 m/s 743 mmHg 75%
    08:00 +18°C° 0 mm 3 m/s 743 mmHg 71%
    09:00 +19°C° 0 mm 3 m/s 743 mmHg 66%
    10:00 +20°C° 0 mm 3 m/s 743 mmHg 62%
    11:00 +20°C° 0 mm 4 m/s 743 mmHg 61%
    12:00 +21°C° 0 mm 4 m/s 743 mmHg 59%
    13:00 +21°C° 0 mm 4 m/s 743 mmHg 58%
    14:00 +21°C° 0.1 mm 4 m/s 743 mmHg 60%
    15:00 +21°C° 0.1 mm 4 m/s 743 mmHg 61%
    16:00 +21°C° 0.1 mm 4 m/s 742 mmHg 62%
    17:00 +20°C° 0 mm 3 m/s 742 mmHg 66%
    18:00 +18°C° 0 mm 3 m/s 743 mmHg 71%
    19:00 +17°C° 0 mm 2 m/s 743 mmHg 75%
    20:00 +15°C° 0 mm 2 m/s 743 mmHg 78%
    21:00 +14°C° 0 mm 2 m/s 743 mmHg 81%
    22:00 +12°C° 0 mm 2 m/s 743 mmHg 85%
    23:00 +12°C° 0 mm 2 m/s 743 mmHg 87%

    26 Mai, Duminică

    Timp Temperatura Precipitaţii Vânt Presiune Umiditate
    00:00 +10°C° 0 mm 2 m/s 743 mmHg 90%
    01:00 +9°C° 0 mm 2 m/s 743 mmHg 92%
    02:00 +9°C° 0 mm 2 m/s 743 mmHg 93%
    03:00 +9°C° 0 mm 2 m/s 743 mmHg 93%
    04:00 +8°C° 0 mm 2 m/s 743 mmHg 94%
    05:00 +10°C° 0 mm 3 m/s 743 mmHg 88%
    06:00 +11°C° 0 mm 3 m/s 743 mmHg 83%
    07:00 +13°C° 0 mm 4 m/s 743 mmHg 78%
    08:00 +14°C° 0 mm 4 m/s 743 mmHg 72%
    09:00 +15°C° 0 mm 5 m/s 743 mmHg 66%
    10:00 +16°C° 0 mm 5 m/s 743 mmHg 59%
    11:00 +16°C° 0 mm 5 m/s 743 mmHg 58%
    12:00 +16°C° 0 mm 6 m/s 742 mmHg 57%
    13:00 +16°C° 0 mm 6 m/s 742 mmHg 56%
    14:00 +16°C° 0 mm 6 m/s 742 mmHg 56%
    15:00 +17°C° 0 mm 7 m/s 742 mmHg 56%
    16:00 +17°C° 0 mm 8 m/s 742 mmHg 57%
    17:00 +15°C° 0 mm 6 m/s 742 mmHg 63%
    18:00 +14°C° 0 mm 5 m/s 742 mmHg 69%
    19:00 +12°C° 0 mm 4 m/s 742 mmHg 76%
    20:00 +11°C° 0 mm 3 m/s 742 mmHg 80%
    21:00 +10°C° 0 mm 3 m/s 743 mmHg 85%
    22:00 +9°C° 0 mm 2 m/s 743 mmHg 90%
    23:00 +9°C° 0 mm 2 m/s 743 mmHg 91%

    27 Mai, Luni

    Timp Temperatura Precipitaţii Vânt Presiune Umiditate
    00:00 +8°C° 0 mm 2 m/s 743 mmHg 92%
    01:00 +8°C° 0 mm 2 m/s 743 mmHg 93%
    02:00 +7°C° 0 mm 2 m/s 743 mmHg 93%
    03:00 +8°C° 0 mm 1 m/s 743 mmHg 93%
    04:00 +8°C° 0 mm 1 m/s 743 mmHg 93%
    05:00 +10°C° 0 mm 1 m/s 743 mmHg 87%
    06:00 +12°C° 0 mm 1 m/s 743 mmHg 82%
    07:00 +14°C° 0 mm 2 m/s 742 mmHg 77%
    08:00 +16°C° 0 mm 2 m/s 742 mmHg 73%
    09:00 +17°C° 0 mm 2 m/s 742 mmHg 68%
    10:00 +19°C° 0 mm 3 m/s 742 mmHg 63%
    11:00 +20°C° 0 mm 3 m/s 741 mmHg 61%
    12:00 +21°C° 0 mm 3 m/s 741 mmHg 58%
    13:00 +22°C° 0 mm 3 m/s 740 mmHg 56%
    14:00 +22°C° 0.1 mm 3 m/s 740 mmHg 57%
    15:00 +24°C° 0.1 mm 3 m/s 739 mmHg 59%
    16:00 +24°C° 0.1 mm 3 m/s 739 mmHg 61%
    17:00 +21°C° 0.7 mm 3 m/s 738 mmHg 68%
    18:00 +20°C° 0.7 mm 2 m/s 738 mmHg 75%
    19:00 +18°C° 0.7 mm 2 m/s 738 mmHg 82%
    20:00 +17°C° 0.8 mm 2 m/s 738 mmHg 85%
    21:00 +16°C° 0.8 mm 2 m/s 738 mmHg 88%
    22:00 +15°C° 0.8 mm 2 m/s 738 mmHg 91%
    23:00 +15°C° 0.3 mm 2 m/s 738 mmHg 92%
    Arată mai mult